Regional Weather Roundup
Issued by NWS

Home | Current Version | Previous Version | Text Only | Print | Product List | Glossary On
Versions: 1 2 3 4 5 6 7 8 9 10 11 12 13 14 15 16 17 18 19 20 21 22 23 24 25 26 27 28 29 30 31 32 33 34 35 36 37 38 39 40 41 42 43 44 45 46 47 48 49 50
000
ASUS43 KDTX 011910
RWRMI
MICHIGAN HOURLY REGIONAL WEATHER ROUNDUP
NATIONAL WEATHER SERVICE DETROIT/PONTIAC MI
300 PM EDT WED OCT 01 2014

NOTE: "FAIR" INDICATES FEW OR NO CLOUDS BELOW 12,000 FEET WITH NO
SIGNIFICANT WEATHER AND/OR OBSTRUCTION TO VISIBILITY.

MIZ047>049-052>055-059>063-066>070-074>076-081>083-012000-
SOUTHEAST LOWER MICHIGAN

CITY           SKY/WX    TMP DP  RH WIND       PRES   REMARKS
ADRIAN         MOSUNNY   66  49  54 VRB5      30.04F
ALMA           CLOUDY    61  51  70 SE5       30.04F
ANN ARBOR      PTSUNNY   68  49  50 SW9       30.04F
BAD AXE        CLOUDY    65  59  81 S5        30.06F
DETROIT CITY   CLOUDY    66  52  60 SE5       30.07S
DETROIT        CLOUDY    66  52  60 S6        30.05F
FLINT          PTSUNNY   67  51  56 S8        30.04F
GROSSE ILE     CLOUDY    64  54  68 S5        30.03F
HILLSDALE      PTSUNNY   64  49  57 E5        30.03F
HOWELL         PTSUNNY   63  51  63 SE13      30.04F

CITY           SKY/WX    TMP DP  RH WIND       PRES   REMARKS
JACKSON        CLOUDY    64  49  57 MISG      30.04F
LAMBERTVILLE   PTSUNNY   66  52  59 CALM      30.04F
LANSING        MOSUNNY   63  50  62 SE7       30.03F
LAPEER         NOT AVBL
MASON          PTSUNNY   63  50  61 SE5       30.03F
MONROE         CLOUDY    66  52  59 SE6       30.03F
MT. CLEMENS    PTSUNNY   65  57  76 E5        30.03F
PONTIAC        PTSUNNY   65  51  60 SE6       30.04F
PORT HOPE        N/A     62  59  90 E13       30.05F
PORT HURON     CLOUDY    64  59  82 CALM      30.05F
TRI CITIES     CLOUDY    65  54  67 SE8       30.05F
YPSILANTI      CLOUDY    69  51  52 SE7       30.05F
$$
MIZ043>046-050>051-056>058-064>065-071>073-077>080-012000-
SOUTHWEST LOWER MICHIGAN

CITY           SKY/WX    TMP DP  RH WIND       PRES   REMARKS
BATTLE CREEK   PTSUNNY   63  49  60 VRB6      30.03F
BENTON HARBOR  SUNNY     65  50  58 SE12      29.99F
BIG RAPIDS     CLOUDY    60  56  85 S12G18    30.02S
COLDWATER      MOSUNNY   64  50  60 E5        30.03F
GRAND RAPIDS   CLOUDY    60  51  72 S8        30.03F
KALAMAZOO      PTSUNNY   63  49  60 VRB6      30.03F
MARSHALL       SUNNY     64  49  57 S5        30.03F
MUSKEGON       CLOUDY    60  49  66 SE7       30.02F
$$
MIZ016>042-012000-
NORTHERN LOWER MICHIGAN

CITY           SKY/WX    TMP DP  RH WIND       PRES   REMARKS
ALPENA         CLOUDY    57  57 100 SE7       30.06F FOG
BEAVER ISLAND  CLOUDY    60  55  83 E12       30.01F
BELLAIRE       CLOUDY    65  54  68 E6        30.01F
CADILLAC       PTSUNNY   61  53  74 SE13G20   30.00F
CHARLEVOIX     CLOUDY    61  56  83 E10       30.04F
FRANKFORT      CLOUDY    62  53  71 S5        30.00F
GAYLORD        CLOUDY    57  53  86 SE8       30.04F
GRAYLING       CLOUDY    61  55  78 SE9       30.04F
HARBOR SPRINGS CLOUDY    59  54  83 E5        30.04F
HOUGHTON LAKE  CLOUDY    62  54  74 SE6       30.04F
OSCODA         CLOUDY    60  58  94 CALM      30.05F
PELLSTON       CLOUDY    57  54  89 SE7       30.04F
TRAVERSE CITY  PTSUNNY   65  53  65 SE10      29.99F
$$
MIZ007>008-015-012000-
EASTERN UPPER MICHIGAN

CITY           SKY/WX    TMP DP  RH WIND       PRES   REMARKS
MACKINAC ISLAN CLOUDY    55  54  99 SE9G16    30.04F FOG
NEWBERRY       CLOUDY    55  52  89 SE10      30.01F
S. S. MARIE    CLOUDY    54  51  90 E8        30.05F
$$
MIZ004>006-011>014-085-012000-
CENTRAL UPPER MICHIGAN

CITY           SKY/WX    TMP DP  RH WIND       PRES   REMARKS
MANISTIQUE     CLOUDY    57  53  86 S7        30.00F
SAWYER-GWINN   CLOUDY    54  48  82 S18G24    29.96F
$$
MIZ001>003-009>011-084-012000-
WESTERN UPPER MICHIGAN

CITY           SKY/WX    TMP DP  RH WIND       PRES   REMARKS
IRON MOUNTAIN  CLOUDY    55  51  86 SE12      29.93F
HOUGHTON       SUNNY     58  46  64 S15G24    29.88F
COPPER HARBOR    N/A     59  48  67 SW14G22   29.88
$$

ABBREVIATIONS USED IN REMARKS
   TC - TEMPERATURE IN CELSIUS
  WCI - WIND CHILL INDEX
   HX - HEAT INDEX
  VSB - VISIBILITY



USA.gov is the U.S. government's official web portal to all federal, state and local government web resources and services.